1497528000.59,35115,19.81,74182.5,12.75,3.19,3.29,0,*4C
1497528001.82,35116,19.81,74184.5,12.77,3.33,3.41,0,*4B
1497528003.03,35117,19.81,74182.8,12.77,3.23,3.29,0,*45
1497528004.24,35118,19.81,74184.8,12.77,2.85,2.99,0,*4D
1497528005.47,35119,19.81,74184.3,12.77,3.19,3.33,0,*49
1497528006.72,35120,19.81,74184.8,12.79,3.03,3.11,0,*46
1497528007.96,35121,19.81,74184.3,12.79,2.65,2.77,0,*47
1497528009.21,35122,19.81,74182.5,12.79,2.43,2.55,0,*40
1497528010.44,35123,19.81,74184.5,12.79,2.65,2.77,0,*45
1497528011.68,35124,19.81,74186.3,12.79,3.23,3.25,0,*47
1497528012.9,35125,19.81,74182.3,12.79,2.89,2.91,0,*49
1497528014.1,35126,19.81,74184.5,12.81,2.89,2.91,0,*4D
1497528015.29,35127,19.81,74184.5,12.81,2.61,2.65,0,*41
1497528016.54,35128,19.81,74186.8,12.79,1.89,1.93,0,*46
1497528017.74,35129,19.81,74184.0,12.77,1.33,1.41,0,*47
1497528018.96,35130,19.81,74180.0,12.77,0.59,0.59,0,*4A
1497528020.19,35131,19.81,74182.5,12.73,1.51,1.59,0,*47
1497528021.42,35132,19.81,74182.0,12.73,2.25,2.25,0,*4C
1497528022.63,35133,19.81,74186.0,12.73,1.83,1.85,0,*4B
1497528023.86,35134,19.81,74180.8,12.67,1.83,1.93,0,*4E
1497528025.09,35135,19.81,74184.0,12.69,2.09,1.97,0,*44
1497528026.27,35136,19.81,74182.5,12.69,1.83,1.83,0,*43
1497528027.54,35137,19.81,74180.8,12.67,2.39,2.51,0,*42
1497528028.73,35138,19.81,74184.3,12.69,2.65,2.65,0,*4D
1497528029.96,35139,19.81,74184.5,12.67,3.03,3.25,0,*46
1497528031.17,35140,19.81,74186.5,12.69,3.25,3.33,0,*45
1497528032.41,35141,19.81,74182.5,12.69,3.37,3.33,0,*47
1497528033.64,35142,19.81,74182.0,12.73,3.53,3.53,0,*4B
1497528034.9,35143,19.81,74180.0,12.75,3.07,3.11,0,*4B
1497528036.15,35144,19.81,74182.5,12.75,3.33,3.41,0,*4E
1497528037.41,35145,19.81,74184.8,12.75,3.45,3.45,0,*4A
1497528038.66,35146,19.81,74184.0,12.75,3.49,3.49,0,*49
1497528039.86,35147,19.81,74182.5,12.77,3.49,3.59,0,*4B
1497528041.1,35148,19.81,74182.0,12.77,3.33,3.33,0,*45
1497528042.3,35149,19.81,74182.0,12.79,3.63,3.59,0,*43
1497528043.52,35150,19.81,74180.8,12.79,3.59,3.53,0,*48
1497528044.72,35151,19.81,74182.8,12.81,3.59,3.53,0,*4E
1497528045.9,35152,19.81,74186.5,12.81,3.25,3.25,0,*47
1497528047.11,35153,19.81,74182.5,12.81,3.25,3.23,0,*40
1497528048.33,35154,19.81,74180.8,12.83,3.55,3.49,0,*4E
1497528049.54,35155,19.81,74182.8,12.83,3.85,3.63,0,*4A
1497528050.74,35156,19.81,74180.0,12.85,3.93,3.67,0,*4C
1497528051.94,35157,19.81,74182.8,12.87,3.81,3.55,0,*4D
1497528053.2,35158,19.81,74186.0,12.87,3.71,3.45,0,*4C
1497528054.46,35159,19.81,74182.3,12.87,3.75,3.49,0,*45
1497528055.67,35160,19.81,74184.3,12.89,3.75,3.55,0,*4C
1497528056.9,35161,19.81,74182.5,12.91,3.97,3.63,0,*4D
1497528058.11,35162,19.81,74184.8,12.95,4.05,3.63,0,*46
1497528059.37,35163,19.81,74182.0,12.97,4.05,3.79,0,*4E
1497528060.64,35164,19.81,74182.3,12.97,3.67,3.41,0,*41
1497528061.89,35165,19.81,74182.5,12.99,3.71,3.45,0,*4D
1497528063.12,35166,19.81,74184.3,12.99,4.31,3.97,0,*42
1497528064.33,35167,19.81,74182.0,13.01,4.41,4.15,0,*49
1497528065.57,35168,19.81,74184.0,13.05,4.33,4.05,0,*46
1497528066.79,35169,19.81,74182.0,13.05,4.27,3.93,0,*4A
1497528068.0,35170,19.81,74184.3,13.05,2.61,2.35,0,*4B
1497528069.21,35171,19.81,74180.3,13.07,3.23,2.99,0,*49
1497528070.42,35172,19.81,74180.8,13.07,3.23,2.99,0,*4A
1497528071.63,35173,19.81,74180.8,13.07,3.63,3.41,0,*4B
1497528072.86,35174,19.81,74180.3,13.07,2.85,2.59,0,*4D
1497528074.1,35175,19.81,74180.8,13.07,3.45,3.41,0,*49
1497528075.34,35176,19.81,74182.8,13.07,3.33,3.33,0,*4E
1497528076.57,35177,19.81,74182.0,13.09,3.55,3.45,0,*40
1497528077.81,35178,19.81,74184.3,13.07,3.07,3.07,0,*40
1497528079.08,35179,19.81,74180.0,13.09,3.15,3.15,0,*4F
1497528080.35,35180,19.81,74182.0,13.09,3.11,3.11,0,*49
1497528081.61,35181,19.81,74182.0,13.09,3.11,3.03,0,*4B
1497528082.85,35182,19.81,74186.5,13.09,3.59,3.49,0,*4A
1497528084.11,35183,19.81,74184.8,13.13,3.41,3.37,0,*40
1497528085.31,35184,19.81,74186.8,13.11,3.63,3.53,0,*47
1497528086.57,35185,19.81,74180.8,13.13,3.49,3.41,0,*4F
1497528087.78,35186,19.81,74182.3,13.11,3.89,3.71,0,*41
1497528088.98,35187,19.81,74184.5,13.17,4.45,4.11,0,*40
1497528090.18,35188,19.81,74182.8,13.19,4.63,4.27,0,*40
1497528091.35,35189,19.81,74184.3,13.19,4.85,4.49,0,*41
1497528092.56,35190,19.81,74182.5,13.23,5.15,4.71,0,*43
1497528093.74,35191,19.81,74184.0,13.25,4.57,3.93,0,*48
1497528094.97,35192,19.81,74180.8,13.27,4.33,3.75,0,*43
1497528096.2,35193,19.81,74182.5,13.27,4.33,3.67,0,*41
1497528097.41,35194,19.81,74182.8,13.31,4.57,3.81,0,*4B
1497528098.62,35195,19.81,74180.5,13.31,4.53,3.59,0,*4B
1497528099.82,35196,19.81,74182.8,13.33,4.53,3.71,0,*40
1497528101.06,35197,19.81,74186.5,13.35,4.93,4.07,0,*4D
1497528102.26,35198,19.81,74184.8,13.41,5.41,4.63,0,*4D
1497528103.48,35199,19.81,74182.0,13.45,6.13,5.59,0,*44
1497528104.68,35200,19.81,74182.8,13.49,5.77,5.19,0,*4E
1497528105.93,35201,19.81,74182.0,13.51,5.01,4.59,0,*42
1497528107.16,35202,19.81,74186.0,13.51,4.15,3.71,0,*48
1497528108.43,35203,19.81,74182.5,13.55,3.75,3.49,0,*47
1497528109.68,35204,19.81,74184.0,13.55,3.97,3.67,0,*40
1497528110.92,35205,19.81,74184.8,13.57,3.15,2.95,0,*45
1497528112.15,35206,19.81,74180.8,13.55,3.07,2.91,0,*43
1497528113.36,35207,19.81,74180.0,13.53,2.99,2.81,0,*43
1497528114.6,35208,19.81,74180.8,13.53,4.05,3.97,0,*49
1497528115.8,35209,19.81,74184.3,13.55,4.37,4.19,0,*4E
1497528117.04,35210,19.81,74180.0,13.57,4.31,4.19,0,*42
1497528118.22,35211,19.81,74180.3,13.59,4.37,4.23,0,*42
1497528119.44,35212,19.81,74180.5,13.63,4.63,4.57,0,*4A
1497528120.63,35213,19.81,74182.0,13.59,4.53,4.41,0,*46
1497528121.81,35214,19.81,74180.8,13.63,4.57,4.41,0,*4C
1497528123.02,35215,19.81,74184.0,13.65,4.45,4.37,0,*49
1497528124.24,35216,19.81,74182.0,13.67,4.31,4.33,0,*4F
1497528125.45,35217,19.81,74180.8,13.67,3.85,3.79,0,*4F
1497528126.7,35218,19.81,74180.0,13.69,3.53,3.53,0,*4D
1497528127.93,35219,19.81,74180.8,13.69,4.01,4.11,0,*4D
1497528129.16,35220,19.81,74184.5,13.69,3.53,3.63,0,*45
1497528130.36,35221,19.81,74184.3,13.71,3.33,3.63,0,*4B
1497528131.58,35222,19.81,74182.3,13.71,3.53,3.71,0,*4D
1497528132.8,35223,19.81,74186.3,13.71,4.37,4.63,0,*4D
1497528134.04,35224,19.81,74184.3,13.75,4.59,4.79,0,*4D
1497528135.28,35225,19.81,74184.8,13.75,3.75,3.97,0,*42
1497528136.52,35226,19.81,74182.5,13.75,3.79,3.97,0,*4D
1497528137.79,35227,19.81,74182.5,13.77,3.41,3.41,0,*4E
1497528139.04,35228,19.81,74182.0,13.77,3.49,3.49,0,*41
1497528140.27,35229,19.81,74180.5,13.77,3.53,3.25,0,*41
1497528141.48,35230,19.81,74184.8,13.79,3.81,3.53,0,*49
1497528142.69,35231,19.81,74184.3,13.79,3.89,3.23,0,*47
1497528143.95,35232,19.81,74182.5,13.81,3.45,2.51,0,*47
1497528145.17,35233,19.81,74182.0,13.85,2.99,1.89,0,*44
1497528146.43,35234,19.81,74184.3,13.85,3.37,2.13,0,*46
1497528147.67,35235,19.81,74184.3,13.85,4.53,3.11,0,*41
1497528148.88,35236,19.81,74186.5,13.89,4.23,2.47,0,*4B
1497528150.09,35237,19.81,74182.8,13.89,4.67,2.61,0,*4E
1497528151.28,35238,19.81,74186.0,13.93,5.19,2.99,0,*45
1497528152.51,35239,19.81,74184.5,13.95,5.59,3.37,0,*43
1497528153.74,35240,19.81,74184.3,14.01,5.77,3.41,0,*4A
1497528154.92,35241,19.81,74184.3,14.01,5.95,3.29,0,*49
1497528156.15,35242,19.81,74180.8,14.11,6.91,4.15,0,*44
1497528157.34,35243,19.81,74182.0,14.19,7.01,4.23,0,*40
1497528158.55,35244,19.81,74182.0,14.23,6.43,3.59,0,*43
1497528159.78,35245,19.81,74182.0,14.27,5.85,2.73,0,*46
1497528161.04,35246,19.81,74184.3,14.37,5.55,2.51,0,*49
1497528162.25,35247,19.81,74182.5,14.39,5.23,2.09,0,*4A
1497528163.5,35248,19.81,74180.8,14.41,4.93,1.67,0,*4B
1497528164.68,35249,19.81,74180.8,14.47,4.37,1.05,0,*46
1497528165.9,35250,19.81,74180.0,14.49,4.19,0.71,0,*7E
1497528167.1,35251,19.81,74182.5,14.55,3.85,0.01,0,*47
1497528168.29,35252,19.81,74182.5,14.57,3.59,-0.19,0,*53
1497528169.54,35253,19.81,74184.3,14.59,4.01,0.47,0,*70
1497528170.77,35254,19.81,74182.3,14.63,4.23,1.17,0,*4A
1497528172.01,35255,19.81,74180.3,14.67,5.51,2.85,0,*43
1497528173.25,35256,19.81,74180.0,14.77,6.43,3.49,0,*40
1497528174.46,35257,19.81,74184.0,14.81,6.07,3.11,0,*45
1497528175.68,35258,19.81,74180.5,14.89,6.35,3.93,0,*49
1497528176.91,35259,19.81,74182.5,14.99,6.57,4.07,0,*47
1497528178.12,35260,19.81,74180.0,15.05,5.49,2.81,0,*4D
1497528179.35,35261,19.81,74182.5,15.11,5.59,3.07,0,*47
1497528180.58,35262,19.81,74180.8,15.21,5.11,2.43,0,*4A
1497528181.79,35263,19.81,74180.5,15.23,3.63,1.13,0,*4C
1497528183.04,35264,19.81,74182.5,15.29,4.05,1.51,0,*40
1497528184.22,35265,19.81,74184.0,15.35,3.89,1.41,0,*4E
1497528185.45,35266,19.81,74182.0,15.43,4.59,2.09,0,*49
1497528186.68,35267,19.81,74180.5,15.47,3.97,1.71,0,*45
1497528187.93,35268,19.81,74180.3,15.55,5.73,3.97,0,*4F
1497528189.16,35269,19.81,74178.5,15.67,6.17,4.23,0,*46
1497528190.39,35270,19.81,74180.0,15.73,5.81,4.05,0,*43
1497528191.6,35271,19.81,74182.8,15.83,4.37,2.43,0,*45
1497528192.81,35272,19.81,74180.0,15.91,4.37,2.51,0,*46
1497528194.04,35273,19.81,74184.3,15.99,4.01,2.43,0,*49
1497528195.23,35274,19.81,74182.3,16.03,4.75,2.99,0,*4A
1497528196.46,35275,19.81,74184.0,16.07,2.59,0.91,0,*7D
1497528197.7,35276,19.81,74180.0,16.15,3.23,1.67,0,*49
1497528198.93,35277,19.81,74184.0,16.21,4.37,3.19,0,*46
1497528200.12,35278,19.81,74182.0,16.27,4.81,3.59,0,*46
1497528201.38,35279,19.81,74180.5,16.37,4.67,3.53,0,*44
1497528202.62,35280,19.81,74184.3,16.43,5.05,4.05,0,*40
1497528203.79,35281,19.81,74180.3,16.53,5.19,4.19,0,*40
1497528205.0,35282,19.81,74184.8,16.59,5.23,4.23,0,*49
1497528206.24,35283,19.81,74182.5,16.67,6.13,5.49,0,*48
1497528207.48,35284,19.81,74178.3,16.75,6.91,6.33,0,*48
1497528208.71,35285,19.81,74182.3,16.85,7.05,6.61,0,*4D
1497528209.91,35286,19.81,74182.8,16.95,6.83,6.51,0,*43
1497528211.16,35287,19.81,74180.0,17.01,6.73,6.57,0,*47
1497528212.42,35288,19.81,74176.0,17.11,6.43,6.39,0,*42
1497528213.66,35289,19.81,74182.3,17.21,6.35,6.53,0,*4D
1497528214.87,35290,19.81,74180.3,17.29,7.11,7.55,0,*4D
1497528216.07,35291,19.81,74180.0,17.37,7.05,7.65,0,*45
1497528217.28,35292,19.81,74176.8,17.45,7.05,7.87,0,*4F
1497528218.54,35293,19.81,74178.8,17.55,6.91,7.91,0,*44
1497528219.77,35294,19.81,74178.3,17.63,7.11,8.19,0,*40
1497528220.95,35295,19.81,74180.8,17.75,7.01,8.15,0,*4B
1497528222.2,35296,19.81,74176.0,17.79,6.51,7.73,0,*4F
1497528223.44,35297,19.81,74178.5,17.85,5.89,7.29,0,*44
1497528224.68,35298,19.81,74178.3,17.89,4.67,6.03,0,*4F
1497528225.88,35299,19.81,74178.8,17.95,3.03,4.27,0,*42
1497528227.11,35300,19.81,74178.5,17.99,2.69,4.05,0,*42
1497528228.34,35301,19.81,74180.0,17.97,2.25,3.59,0,*4B
1497528229.56,35302,19.81,74180.3,17.99,3.49,4.79,0,*48
1497528230.79,35303,19.81,74178.8,17.99,2.89,3.97,0,*43
1497528232.01,35304,19.81,74182.3,18.01,3.03,4.11,0,*40
1497528233.25,35305,19.81,74182.5,18.03,4.59,5.51,0,*4E
1497528234.49,35306,19.81,74182.0,18.07,5.19,5.89,0,*49
1497528235.74,35307,19.81,74180.8,18.11,6.57,7.23,0,*44
1497528237.01,35308,19.81,74178.3,18.19,6.51,6.65,0,*46
1497528238.2,35309,19.81,74176.8,18.25,5.63,5.45,0,*4B
1497528239.38,35310,19.81,74180.5,18.29,5.67,5.49,0,*47
1497528240.61,35311,19.81,74180.5,18.29,6.47,6.17,0,*4F
1497528241.84,35312,19.81,74180.5,18.35,6.79,6.43,0,*4D
1497528243.05,35313,19.81,74182.3,18.41,5.95,5.41,0,*4F
1497528244.31,35314,19.81,74180.8,18.45,6.43,5.73,0,*45
1497528245.52,35315,19.81,74180.0,18.47,6.35,5.67,0,*42
1497528246.76,35316,19.81,74180.0,18.51,8.37,7.77,0,*49
1497528247.93,35317,19.81,74182.3,18.59,7.45,6.79,0,*45
1497528249.14,35318,19.81,74182.0,18.65,8.83,8.45,0,*41
1497528250.34,35319,19.81,74180.5,18.73,9.61,9.29,0,*41
1497528251.55,35320,19.81,74180.5,18.77,9.15,8.87,0,*49
1497528252.77,35321,19.81,74178.3,18.87,8.27,8.05,0,*4D
1497528253.98,35322,19.81,74184.0,18.91,7.55,7.41,0,*4C
1497528255.19,35323,19.81,74182.5,18.93,6.79,6.91,0,*4C
1497528256.44,35324,19.81,74182.5,18.95,8.13,8.29,0,*42
1497528257.67,35325,19.81,74182.0,18.99,6.93,7.15,0,*49
1497528258.87,35326,19.81,74182.5,19.03,7.01,7.65,0,*45
1497528260.06,35327,19.81,74182.0,19.07,6.21,6.83,0,*4A
1497528261.27,35328,19.81,74180.3,19.09,4.19,4.85,0,*46
1497528262.48,35329,19.81,74184.8,19.07,4.05,4.81,0,*40
1497528263.68,35330,19.81,74180.0,19.03,3.53,4.41,0,*44
1497528264.92,35331,19.81,74180.0,19.03,3.71,4.67,0,*41
1497528266.13,35332,19.81,74182.0,18.97,3.19,4.23,0,*40
1497528267.38,35333,19.81,74182.5,18.95,2.51,3.67,0,*49
1497528268.59,35334,19.81,74186.5,18.93,2.47,3.63,0,*4B
1497528269.8,35335,19.81,74184.5,18.89,2.39,3.59,0,*41
1497528271.04,35336,19.81,74184.0,18.85,1.93,3.15,0,*45
1497528272.3,35337,19.81,74180.0,18.79,2.05,3.33,0,*4F
1497528273.56,35338,19.81,74184.8,18.75,2.43,3.67,0,*4F
1497528274.79,35339,19.81,74182.8,18.71,2.89,4.15,0,*4E
1497528276.0,35340,19.81,74186.0,18.69,2.99,4.05,0,*49
1497528277.19,35341,19.81,74184.8,18.67,0.67,1.41,0,*70
1497528278.4,35342,19.81,74184.8,18.57,-0.77,-0.15,0,*41
1497528279.6,35343,19.81,74186.0,18.51,-0.37,0.17,0,*6D
1497528280.84,35344,19.81,74182.8,18.41,-1.43,-0.81,0,*7B
1497528282.06,35345,19.81,74186.8,18.35,-1.33,-0.77,0,*77
1497528283.29,35346,19.81,74184.5,18.27,-0.15,0.37,0,*6B
1497528284.5,35347,19.81,74186.5,18.23,0.47,0.97,0,*4E
1497528285.75,35348,19.81,74184.3,18.19,0.21,0.63,0,*43
1497528287.01,35349,19.81,74180.8,18.11,0.55,1.37,0,*79
1497528288.23,35350,19.81,74180.5,18.09,1.21,1.83,0,*45
1497528289.43,35351,19.81,74186.0,18.05,0.55,1.01,0,*70
1497528290.69,35352,19.81,74186.8,18.01,0.87,1.37,0,*7D
1497528291.92,35353,19.81,74186.0,17.99,2.59,3.11,0,*45
1497528293.15,35354,19.81,74184.8,17.97,1.75,2.17,0,*46
1497528294.37,35355,19.81,74186.0,17.91,0.17,0.59,0,*4C
1497528295.61,35356,19.81,74182.0,17.89,-0.27,0.13,0,*66
1497528296.83,35357,19.81,74186.5,17.83,0.95,1.51,0,*7E
1497528298.05,35358,19.81,74184.8,17.83,0.95,1.47,0,*76
1497528299.21,35359,19.81,74182.5,17.79,0.43,0.97,0,*45
1497528300.43,35360,19.81,74186.5,17.75,0.17,0.83,0,*47
1497528301.62,35361,19.81,74184.8,17.75,0.33,1.01,0,*7B
1497528302.83,35362,19.81,74184.8,17.67,0.43,1.29,0,*76
1497528304.07,35363,19.81,74184.5,17.65,1.29,2.25,0,*47
1497528305.33,35364,19.81,74186.3,17.63,1.51,2.39,0,*44
1497528306.55,35365,19.81,74180.0,17.61,0.63,1.47,0,*7D
1497528307.76,35366,19.81,74182.8,17.57,1.55,2.31,0,*4D
1497528308.94,35367,19.81,74182.3,17.53,0.97,1.75,0,*74
1497528310.16,35368,19.81,74184.8,17.51,0.79,1.41,0,*7E
1497528311.4,35369,19.81,74180.8,17.43,1.41,2.13,0,*42
1497528312.63,35370,19.81,74184.0,17.41,1.13,1.89,0,*4F
1497528313.87,35371,19.81,74184.3,17.41,1.13,1.85,0,*42
1497528315.12,35372,19.81,74184.0,17.35,0.47,1.17,0,*79
1497528316.36,35373,19.81,74182.0,17.33,1.33,2.21,0,*4A
1497528317.63,35374,19.81,74186.0,17.31,1.13,1.85,0,*40
1497528318.89,35375,19.81,74184.8,17.27,1.55,2.17,0,*4C
1497528320.13,35376,19.81,74186.3,17.21,1.51,2.13,0,*49
1497528321.36,35377,19.81,74186.8,17.21,2.01,2.59,0,*40
1497528322.58,35378,19.81,74182.3,17.17,1.67,2.25,0,*42
1497528323.79,35379,19.81,74184.8,17.17,1.29,1.83,0,*46
1497528325.03,35380,19.81,74182.5,17.13,1.55,2.01,0,*46
1497528326.26,35381,19.81,74182.5,17.13,1.51,1.97,0,*4F
1497528327.47,35382,19.81,74180.3,17.09,2.31,2.77,0,*4F
1497528328.7,35383,19.81,74182.8,17.07,2.51,2.85,0,*4B
1497528329.92,35384,19.81,74180.8,17.05,2.35,2.73,0,*45
1497528331.15,35385,19.81,74186.3,17.01,2.27,2.59,0,*4B
1497528332.38,35386,19.81,74180.0,17.01,2.01,2.35,0,*46
1497528333.59,35387,19.81,74186.0,16.99,1.83,2.17,0,*4E
1497528334.84,35388,19.81,74184.0,16.97,0.75,1.09,0,*7B
1497528336.08,35389,19.81,74186.0,16.93,0.59,0.83,0,*43
1497528337.3,35390,19.81,74184.5,16.91,0.41,0.75,0,*49
1497528338.53,35391,19.81,74184.0,16.87,0.51,0.83,0,*47
1497528339.75,35392,19.81,74182.5,16.83,0.21,0.59,0,*40
1497528341.0,35393,19.81,74184.3,16.77,0.51,0.87,0,*4E
1497528342.22,35394,19.81,74184.8,16.73,0.37,0.83,0,*49
1497528343.43,35395,19.81,74184.5,16.71,0.51,0.97,0,*4F
1497528344.66,35396,19.81,74182.3,16.69,0.79,1.29,0,*7B
1497528345.9,35397,19.81,74182.5,16.67,1.25,1.83,0,*4C
1497528347.13,35398,19.81,74186.3,16.65,1.21,1.89,0,*4F
1497528348.35,35399,19.81,74186.8,16.61,0.67,1.29,0,*73
1497528349.57,35400,19.81,74184.3,16.61,0.63,1.29,0,*70
1497528350.81,35401,19.81,74186.3,16.55,0.25,0.87,0,*41
1497528352.07,35402,19.81,74184.3,16.51,0.83,1.59,0,*78
1497528353.33,35403,19.81,74182.8,16.51,1.85,2.69,0,*4E
1497528354.58,35404,19.81,74184.8,16.47,1.85,2.65,0,*42
1497528355.84,35405,19.81,74180.0,16.47,2.05,2.81,0,*42
1497528357.1,35406,19.81,74184.0,16.47,1.47,2.05,0,*48
1497528358.33,35407,19.81,74184.3,16.43,-0.23,0.29,0,*6F
1497528359.56,35408,19.81,74184.0,16.39,0.79,1.47,0,*76
1497528360.77,35409,19.81,74184.5,16.37,1.75,2.31,0,*46
1497528361.98,35410,19.81,74184.5,16.39,2.09,2.65,0,*49
1497528363.23,35411,19.81,74180.8,16.33,2.01,2.61,0,*4E
1497528364.44,35412,19.81,74184.0,16.31,2.27,2.89,0,*4D
1497528365.7,35413,19.81,74182.0,16.29,2.09,2.55,0,*48
1497528366.97,35414,19.81,74184.0,16.29,2.13,2.59,0,*48
1497528368.19,35415,19.81,74184.5,16.27,2.65,3.03,0,*48
1497528369.43,35416,19.81,74186.8,16.23,2.05,2.39,0,*41
1497528370.64,35417,19.81,74186.0,16.23,2.31,2.81,0,*44
1497528371.9,35418,19.81,74186.3,16.21,2.85,3.11,0,*4E
1497528373.13,35419,19.81,74182.5,16.21,2.95,3.19,0,*46
1497528374.37,35420,19.81,74184.0,16.21,2.61,2.73,0,*4A
1497528375.58,35421,19.81,74184.0,16.19,2.95,3.07,0,*49
1497528376.79,35422,19.81,74182.8,16.19,2.85,2.95,0,*41
1497528377.99,35423,19.81,74180.8,16.19,3.29,3.29,0,*41
1497528379.18,35424,19.81,74182.8,16.15,3.25,3.25,0,*4A
1497528380.39,35425,19.81,74182.8,16.17,2.91,2.91,0,*49
1497528381.62,35426,19.81,74184.0,16.15,3.37,3.37,0,*48
1497528382.88,35427,19.81,74186.0,16.17,3.33,3.15,0,*4F
1497528384.12,35428,19.81,74182.5,16.13,3.23,2.99,0,*40
1497528385.36,35429,19.81,74182.3,16.13,1.43,1.01,0,*47
1497528386.56,35430,19.81,74184.8,16.11,2.51,2.35,0,*49
1497528387.79,35431,19.81,74180.8,16.11,2.89,2.73,0,*4F
1497528388.99,35432,19.81,74184.0,16.07,2.61,2.43,0,*4E
1497528390.24,35433,19.81,74184.8,16.05,3.11,2.69,0,*43
1497528391.49,35434,19.81,74186.0,16.05,2.43,1.97,0,*40
1497528392.72,35435,19.81,74184.5,16.01,2.95,2.51,0,*47
1497528393.92,35436,19.81,74186.0,16.03,2.65,2.13,0,*4F
1497528395.14,35437,19.81,74184.0,16.03,2.47,1.89,0,*4E
1497528396.36,35438,19.81,74186.3,16.03,3.33,2.89,0,*40
1497528397.59,35439,19.81,74184.0,16.01,3.45,2.99,0,*43
1497528398.81,35440,19.81,74180.8,16.01,4.07,3.67,0,*4C
1497528400.04,35441,19.81,74184.5,16.01,3.89,3.33,0,*4D
1497528401.27,35442,19.81,74182.8,16.03,3.49,2.89,0,*40
1497528402.51,35443,19.81,74184.8,16.01,3.49,2.89,0,*43
1497528403.77,35444,19.81,74184.0,16.01,3.79,3.33,0,*47
1497528404.97,35445,19.81,74184.5,16.03,4.63,4.07,0,*48
1497528406.2,35446,19.81,74182.8,16.05,4.33,3.71,0,*4E
1497528407.42,35447,19.81,74184.8,16.05,4.53,3.97,0,*41
1497528408.65,35448,19.81,74186.5,16.07,3.79,3.07,0,*4A
1497528409.87,35449,19.81,74184.8,16.07,3.33,2.47,0,*40
1497528411.09,35450,19.81,74184.0,16.05,2.31,1.47,0,*4A
1497528412.34,35451,19.81,74184.3,16.05,3.23,2.43,0,*4E
1497528413.6,35452,19.81,74184.0,16.05,3.75,2.89,0,*48
1497528414.77,35453,19.81,74184.5,16.07,4.45,3.55,0,*4F
1497528415.97,35454,19.81,74186.8,16.07,4.81,3.97,0,*4E
1497528417.16,35455,19.81,74184.8,16.07,4.79,3.85,0,*4B
1497528418.43,35456,19.81,74184.3,16.13,4.63,3.71,0,*4D
1497528419.67,35457,19.81,74186.0,16.13,4.53,3.45,0,*48
1497528420.94,35458,19.81,74186.3,16.13,4.63,3.33,0,*45
1497528422.14,35459,19.81,74186.0,16.15,4.85,3.53,0,*4C
1497528423.41,35460,19.81,74184.0,16.17,3.75,2.39,0,*41
1497528424.67,35461,19.81,74186.3,16.17,3.71,2.43,0,*49
1497528425.94,35462,19.81,74182.8,16.17,4.31,3.15,0,*4B
1497528427.16,35463,19.81,74186.0,16.19,4.49,3.41,0,*4A
1497528428.37,35464,19.81,74184.3,16.21,5.19,4.15,0,*44
1497528429.61,35465,19.81,74184.5,16.23,4.05,2.89,0,*48
1497528430.86,35466,19.81,74184.3,16.27,3.07,1.85,0,*45
1497528432.11,35467,19.81,74184.8,16.23,3.71,2.51,0,*4B
1497528433.35,35468,19.81,74186.5,16.23,4.31,3.15,0,*46
1497528434.53,35469,19.81,74184.3,16.27,4.81,3.59,0,*40
1497528435.74,35470,19.81,74186.5,16.31,5.29,4.01,0,*46
1497528436.93,35471,19.81,74186.8,16.31,5.23,3.93,0,*41
1497528438.17,35472,19.81,74182.3,16.37,5.27,4.01,0,*4C
1497528439.41,35473,19.81,74186.0,16.37,4.93,3.59,0,*49
1497528440.64,35474,19.81,74184.5,16.41,4.53,3.23,0,*4E
1497528441.88,35475,19.81,74186.0,16.41,4.81,3.45,0,*40
1497528443.12,35476,19.81,74182.5,16.41,3.89,2.51,0,*48
1497528444.33,35477,19.81,74184.3,16.43,4.33,3.07,0,*4F
1497528445.54,35478,19.81,74186.0,16.43,3.93,2.69,0,*44
1497528446.75,35479,19.81,74184.8,16.45,3.81,2.69,0,*40
1497528447.99,35480,19.81,74184.3,16.45,4.67,3.71,0,*41
1497528449.26,35481,19.81,74184.5,16.47,4.59,3.41,0,*4C
1497528450.5,35482,19.81,74186.0,16.47,4.45,3.71,0,*41
1497528451.73,35483,19.81,74184.0,16.49,4.97,4.59,0,*4C
1497528452.91,35484,19.81,74186.3,16.53,5.41,4.85,0,*4B
1497528454.1,35485,19.81,74186.0,16.53,4.41,3.81,0,*48
1497528455.3,35486,19.81,74188.0,16.53,4.59,4.15,0,*48
1497528456.54,35487,19.81,74184.5,16.55,3.81,3.49,0,*43
1497528457.75,35488,19.81,74186.8,16.55,4.07,3.81,0,*41
1497528458.97,35489,19.81,74184.8,16.59,4.23,3.93,0,*49
1497528460.18,35490,19.81,74184.3,16.59,3.85,3.63,0,*45
1497528461.44,35491,19.81,74186.3,16.59,3.71,3.53,0,*4C
1497528462.64,35492,19.81,74186.3,16.55,3.81,3.55,0,*4A
1497528463.85,35493,19.81,74184.5,16.55,3.81,3.59,0,*47
1497528465.11,35494,19.81,74186.3,16.55,3.71,3.49,0,*4E
1497528466.34,35495,19.81,74184.5,16.55,4.07,3.97,0,*4A
1497528467.58,35496,19.81,74184.3,16.55,3.81,3.67,0,*4F
1497528468.81,35497,19.81,74186.8,16.55,3.79,3.59,0,*44
1497528470.05,35498,19.81,74186.5,16.59,4.07,3.75,0,*47
1497528471.26,35499,19.81,74182.0,16.59,4.45,4.23,0,*44
1497528472.47,35500,19.81,74184.8,16.59,4.45,4.11,0,*44
1497528473.73,35501,19.81,74184.0,16.59,3.41,2.89,0,*41
1497528474.94,35502,19.81,74184.8,16.59,4.33,4.11,0,*47
1497528476.15,35503,19.81,74180.8,16.61,5.07,4.71,0,*4D
1497528477.39,35504,19.81,74184.8,16.61,4.97,4.67,0,*45
1497528478.6,35505,19.81,74184.8,16.61,4.59,4.15,0,*43
1497528479.8,35506,19.81,74184.5,16.65,5.23,4.79,0,*42
1497528480.98,35507,19.81,74186.3,16.65,5.33,4.89,0,*4D
1497528482.2,35508,19.81,74184.3,16.65,5.11,4.71,0,*45
1497528483.41,35509,19.81,74186.5,16.67,4.23,3.81,0,*4E
1497528484.62,35510,19.81,74186.5,16.67,3.63,3.29,0,*47
1497528485.83,35511,19.81,74184.5,16.67,2.99,2.31,0,*4A
1497528487.07,35512,19.81,74182.8,16.63,2.69,1.89,0,*42
1497528488.31,35513,19.81,74186.3,16.63,4.37,3.75,0,*4F
1497528489.53,35514,19.81,74182.8,16.63,4.45,3.67,0,*4E
1497528490.74,35515,19.81,74186.8,16.65,4.63,3.93,0,*46
1497528491.96,35516,19.81,74186.3,16.67,5.23,4.53,0,*49
1497528493.19,35517,19.81,74182.3,16.67,5.27,4.57,0,*48
1497528494.4,35518,19.81,74184.3,16.71,5.19,4.37,0,*4B
1497528495.65,35519,19.81,74186.0,16.71,3.53,2.69,0,*4F
1497528496.88,35520,19.81,74184.3,16.71,2.43,1.41,0,*4C
1497528498.1,35521,19.81,74186.3,16.69,2.85,1.71,0,*4D
1497528499.33,35522,19.81,74184.5,16.69,4.01,3.15,0,*44
1497528500.59,35523,19.88,74188.5,16.71,4.59,3.67,0,*44
1497528501.83,35524,19.81,74186.3,16.69,3.79,2.81,0,*46
1497528503.06,35525,19.81,74182.0,16.71,3.41,2.35,0,*4A
1497528504.28,35526,19.81,74186.0,16.69,2.85,1.59,0,*40
1497528505.49,35527,19.81,74184.5,16.69,3.67,2.35,0,*45
1497528506.72,35528,19.81,74184.0,16.69,3.03,1.59,0,*41
1497528507.95,35529,19.81,74184.5,16.67,3.25,1.93,0,*4C
1497528509.16,35530,19.88,74186.0,16.67,3.25,1.83,0,*45
1497528510.39,35531,19.81,74186.5,16.65,3.49,2.13,0,*46
1497528511.62,35532,19.81,74186.0,16.65,4.63,3.19,0,*41
1497528512.88,35533,19.81,74184.0,16.67,5.05,3.37,0,*4F
1497528514.08,35534,19.81,74184.5,16.71,5.37,3.63,0,*4F
1497528515.31,35535,19.81,74182.3,16.71,3.55,1.51,0,*4F
1497528516.51,35536,19.81,74182.3,16.69,2.13,-0.07,0,*69
1497528517.72,35537,19.81,74186.3,16.69,3.25,1.17,0,*41
1497528518.94,35538,19.81,74184.8,16.69,4.01,1.89,0,*48
1497528520.14,35539,19.81,74186.0,16.69,4.15,2.01,0,*4F
1497528521.4,35540,19.81,74184.8,16.71,4.79,2.69,0,*4C
1497528522.63,35541,19.81,74182.5,16.75,5.33,3.37,0,*4C
1497528523.86,35542,19.81,74184.5,16.77,5.73,3.85,0,*40
1497528525.07,35543,19.81,74186.3,16.85,6.25,4.41,0,*43